User: anonymous   Login
Location: Boncourt
(49.6160°N, 3.9448°E)
Time: 22:15:36
(UTC+00:00)
Language:

Cosmos 1825 - Orbit

View from above orbital plane
View from above orbital plane
View from above satellite
View from above satellite

Ground track
Ground track

The orbit data is extracted from the following two-line orbital elements,

1 17566U 87024A   23150.84895476  .00009585  00000-0  34197-3 0  9992
2 17566  82.5007 288.0905 0003627 166.8431 193.2904 15.28737818984209
Epoch (UTC): 30 May 2023 20:22:29
Eccentricity: 0.0003627
inclination: 82.5007°
perigee height: 477 km
apogee height: 482 km
right ascension of ascending node: 288.0905°
argument of perigee: 166.8431°
revolutions per day: 15.28737818
mean anomaly at epoch: 193.2904°
orbit number at epoch: 98420

The dashed part of the orbit path shows where the satellite is in the earth's shadow,  

DLR